Location: Czu?�w
(50.1404°N, 18.9919°E)
Time: 03:25:07
(UTC+00:00)

CZ-4C R/B - Pass Details

Date: 27 October 2020
Orbit: 624 x 1378 km, 63.4° (Epoch: 24 November)

Event Time Altitude Azimuth Distance (km) Brightness Sun altitude
Rises 17:33:31 0° 311° (NW) 3,591 6.3 -20.5°
Reaches altitude 10° 17:36:06 10° 320° (NW) 2,758 5.5 -20.9°
Maximum altitude 17:42:13 38° 27° (NNE) 1,661 3.5 -21.9°
Enters shadow 17:44:24 32° 61° (ENE) 1,905 3.6 -22.3°
